Notices

What's New in latest Release from April 7th, 2021:

- Updated Glossary, including Speed of Maximum Gust, and Total Hourly Precipitation

- Updated national and regional climate services offices contacts and prices information

- Addition of station inventory lists for 1981-2010, 1971-2000, and 1961-1990 Normals.

If you haven't already, please take our survey and provide feedback about our website: https://eccc.sondage-survey.ca/f/LanguageSelection.aspx?s=442ca660-fcf1-47c0-95a9-59707d6fd709

Hourly Data Report for December 03, 2004

SHERBROOKE A
QUEBEC

45°26'00.000" N
71°41'00.000" W
241.40 m
7028124
71610
YSC

Download Data

Hourly Data (December 2004)
Hourly Data Report for December 3, 2004
TIME
LST
Temp Definition
°C
Dew Point Definition
°C
Rel Hum Definition
%
Precip. Amount Definition
mm

Wind Dir Definition
10's deg

Wind Spd Definition
km/h
Visibility Definition
km
Stn Press Definition
kPa
Hmdx Definition


Wind Chill Definition


Weather Definition


00:00 -11.0 -12.8 87     0 15.0 98.38      
01:00 -11.4 -13.4 85   10 4 15.0 98.34   -14  
02:00 -10.7 -12.8 84   6 6 15.0 98.33   -14  
03:00 -10.5 -12.6 85   4 6 15.0 98.29   -14  
04:00 -10.8 -13.1 83   7 7 15.0 98.20   -15  
05:00 -11.8 -14.0 84   6 6 15.0 98.12   -16  
06:00 -11.1 -13.4 83   6 7 15.0 98.08   -15  
07:00 -10.8 -13.3 82   6 7 15.0 98.03   -15 Snow
08:00 -10.3 -12.6 83   6 7 2.8 97.97   -14 Ice Pellets
09:00 -9.5 -11.7 84   5 13 2.8 97.92   -16 Snow
10:00 -8.4 -10.6 84   5 11 2.8 97.89   -14 Snow
11:00 -7.3 -9.6 84   4 9 1.2 97.80   -12 Snow
12:00 -6.9 -9.0 85   6 11 1.2 97.73   -12 Snow
13:00 -6.2 -8.3 85   5 11 1.2 97.69   -11 Snow
14:00 -5.8 -8.0 84   4 7 12.9 97.69   -9 Snow
15:00 -5.8 -8.0 84   6 6 12.9 97.73   -9 Snow
16:00 -6.2 -8.4 84   7 6 12.9 97.82   -9 Snow
17:00 -6.2 -8.4 84   5 4 12.9 97.87   -8 Snow
18:00 -6.3 -8.4 85     0 11.3 97.96     Snow
19:00 -6.3 -8.0 88   27 7 1.9 98.07   -10 Snow
20:00 -7.9 -9.9 86   27 15 2.6 98.16   -14 Snow
21:00 -8.8 -10.9 85   27 17 8.0 98.25   -16 Snow
22:00 -9.2 -11.6 83   27 15 2.6 98.39   -16 Snow
23:00 -9.5 -12.0 82   27 11 3.7 98.44   -15 Snow

Notes on Data Quality.

Legend

  • E = Estimated
  • M = Missing
  • NA = Not Available*
  • [empty] = Indicates an unobserved value
Date modified: